FW9721 Weather Reports


time (UTC)temp
F
wind
direction
speed
knots
gust
knots
rain 1hr
in
rain 24hr
in
rain mn
in
humidity
%
barometer
mb
20260507014553 80 86 6.1 13.0 0.00 0.00 0.00 89 1006.1
20260507013054 81 99 6.1 12.2 0.00 0.00 0.00 89 1005.8
20260507011551 81 117 6.1 10.4 0.00 0.00 0.00 89 1005.7
20260507010052 81 112 11.3 16.5 0.00 0.00 0.00 88 1005.2
20260507004540 81 70 7.0 13.9 0.00 0.00 0.00 88 1005.1
20260507003051 81 103 7.8 19.1 0.00 0.00 0.00 88 1004.8
20260507001606 81 115 13.0 17.4 0.00 0.00 0.00 87 1004.5
20260507000050 82 110 11.3 18.2 0.00 0.00 0.00 86 1004.4
20260506234557 82 96 12.2 20.9 0.00 0.00 0.00 86 1004.3
20260506233052 82 106 13.0 20.0 0.00 0.00 0.00 85 1004.4
20260506231553 83 115 9.6 13.9 0.00 0.00 0.00 84 1004.2
20260506230049 83 98 8.7 15.6 0.00 0.00 0.00 85 1004.0
20260506224600 83 106 12.2 16.5 0.00 0.00 0.00 84 1003.8
20260506223041 83 91 11.3 20.0 0.00 0.00 0.00 83 1003.8
20260506221541 83 114 15.6 19.1 0.00 0.00 0.00 82 1003.8
20260506220051 84 114 12.2 18.2 0.00 0.00 0.00 82 1003.8
20260506214549 84 101 13.0 16.5 0.00 0.00 0.00 81 1003.9
20260506213046 85 96 8.7 15.6 0.00 0.00 0.00 79 1004.0
20260506211553 85 115 7.8 14.8 0.00 0.00 0.00 80 1004.1
20260506210045 85 98 8.7 13.9 0.00 0.00 0.00 78 1004.2
20260506204550 86 91 7.0 13.9 0.00 0.00 0.00 78 1004.2
20260506203040 86 40 4.3 13.9 0.00 0.00 0.00 79 1004.6
20260506201539 86 75 8.7 13.9 0.00 0.00 0.00 79 1004.6
20260506200047 86 257 6.1 11.3 0.00 0.00 0.00 79 1004.9
20260506194546 86 111 3.5 10.4 0.00 0.00 0.00 80 1005.0
20260506193053 85 106 6.1 10.4 0.00 0.00 0.00 79 1005.3
20260506191539 85 129 6.1 11.3 0.00 0.00 0.00 80 1005.7
20260506190046 86 103 5.2 9.6 0.00 0.00 0.00 80 1005.9
20260506184543 85 128 4.3 10.4 0.00 0.00 0.00 80 1005.9
20260506183043 85 95 4.3 8.7 0.00 0.00 0.00 81 1006.0
20260506181559 84 72 5.2 8.7 0.00 0.00 0.00 83 1006.2
20260506180049 83 101 6.1 11.3 0.00 0.00 0.00 84 1006.5
20260506174547 83 46 9.6 12.2 0.00 0.00 0.00 83 1006.7
20260506173107 83 86 6.1 8.7 0.00 0.00 0.00 82 1006.9
20260506171549 83 91 6.1 8.7 0.00 0.00 0.00 83 1007.0
20260506170041 83 40 6.1 9.6 0.00 0.00 0.00 83 1007.1
20260506164547 83 54 4.3 7.8 0.00 0.00 0.00 83 1007.3
20260506163048 82 110 3.5 9.6 0.00 0.00 0.00 84 1007.2
20260506161543 82 107 4.3 8.7 0.00 0.00 0.00 84 1007.2
20260506160057 81 96 6.1 11.3 0.00 0.00 0.00 85 1007.3
20260506154548 82 96 5.2 7.8 0.00 0.00 0.00 87 1007.3
20260506153043 81 35 5.2 11.3 0.00 0.00 0.00 87 1007.3
20260506151546 80 91 7.8 13.0 0.00 0.00 0.00 88 1007.2
20260506150048 80 76 7.8 12.2 0.00 0.00 0.00 89 1007.0
20260506144543 80 86 9.6 13.9 0.00 0.00 0.00 89 1007.1
20260506143051 80 80 11.3 14.8 0.00 0.00 0.00 90 1007.0
20260506141538 80 76 7.8 12.2 0.00 0.00 0.00 90 1007.2
20260506140038 80 76 7.0 9.6 0.00 0.00 0.00 90 1007.1
20260506134547 79 89 5.2 9.6 0.00 0.00 0.00 91 1007.1
20260506133040 79 86 5.2 7.8 0.00 0.00 0.00 91 1007.0
20260506131554 79 90 7.0 8.7 0.00 0.00 0.00 91 1007.1
20260506130053 79 86 4.3 7.0 0.00 0.00 0.00 91 1007.1
20260506124538 79 72 3.5 6.1 0.00 0.02 0.00 91 1006.9
20260506123045 79 36 3.5 7.0 0.00 0.02 0.00 91 1006.8
20260506121542 79 112 2.6 7.0 0.00 0.02 0.00 91 1006.9
20260506120040 79 81 5.2 7.8 0.00 0.02 0.00 91 1006.6
20260506114538 79 103 4.3 6.1 0.00 0.02 0.00 91 1006.6
20260506113038 79 106 3.5 5.2 0.00 0.02 0.00 91 1006.7
20260506111545 79 117 1.7 4.3 0.00 0.02 0.00 91 1006.6
20260506110041 79 103 1.7 5.2 0.00 0.02 0.00 91 1006.4
20260506104547 79 121 1.7 6.1 0.00 0.02 0.00 91 1006.2
20260506103044 79 139 5.2 7.0 0.00 0.02 0.00 91 1006.1
20260506101539 79 143 4.3 7.0 0.00 0.02 0.00 91 1006.1
20260506100045 79 135 4.3 9.6 0.00 0.02 0.00 91 1006.0
20260506094554 79 151 7.0 9.6 0.00 0.02 0.00 91 1006.0
20260506093041 79 137 7.8 10.4 0.00 0.02 0.00 92 1006.0
20260506091549 79 134 7.0 11.3 0.00 0.02 0.00 92 1006.0
20260506090046 79 100 2.6 6.1 0.00 0.02 0.00 92 1005.9
20260506084547 79 154 4.3 7.0 0.00 0.02 0.00 92 1006.2
20260506083046 79 96 1.7 6.1 0.00 0.02 0.00 92 1006.1
20260506081544 79 122 4.3 7.8 0.00 0.02 0.00 92 1006.0
20260506073048 79 136 6.1 9.6 0.00 0.02 0.00 91 1006.6
20260506071548 79 138 7.0 10.4 0.00 0.02 0.00 91 1006.6
20260506061547 79 138 7.8 14.8 0.00 0.02 0.00 91 1007.2
20260506060106 79 143 10.4 14.8 0.00 0.02 0.00 91 1007.4
20260506044547 79 137 9.6 13.9 0.00 0.02 0.02 91 1007.4
20260506043042 79 138 9.6 13.0 0.00 0.02 0.02 90 1007.3
20260506041550 79 125 7.0 13.9 0.00 0.02 0.02 90 1007.3
20260506040044 79 130 7.8 13.0 0.00 0.02 0.02 90 1007.1
20260506034538 79 134 7.8 12.2 0.00 0.02 0.02 90 1006.8
20260506033046 79 121 7.0 13.9 0.00 0.02 0.02 89 1006.8
20260506031548 79 149 11.3 19.1 0.00 0.02 0.02 89 1006.6
20260506030040 79 143 11.3 16.5 0.00 0.02 0.02 89 1006.5
20260506024556 79 91 8.7 17.4 0.00 0.02 0.02 88 1006.4
20260506023053 79 121 7.8 13.0 0.00 0.02 0.02 88 1006.2
20260506021541 79 135 7.8 15.6 0.00 0.02 0.02 88 1005.8
20260506020047 79 149 7.0 13.9 0.00 0.02 0.02 87 1005.7